This demonstration page uses our WeatherBlox Daily Observations layout. Learn more.

40.92945, -100.16068

Hourly Observations for December 3, 2015

Temp ( °F °C ) Dew Point ( °F °C ) Humidity (%) Winds ( mph kmh ) Pressure ( in mb ) Visibility ( mi km ) Precip ( " mm )
12:15 am 00:15 Clear 22 -5.5 20 -6.6 92 92 W 6 9 30.36 1028 10 16.0934 N/A
12:35 am 00:35 Clear 22 -5.5 20 -6.8 91 91 Calm 30.36 1028 10 16.0934 N/A
12:55 am 00:55 Clear 22 -5.3 20 -6.7 90 90 WNW 3 6 30.36 1028 10 16.0934 N/A
1:15 am 01:15 Clear 22 -5.5 20 -6.9 90 90 NW 3 6 30.36 1028 10 16.0934 N/A
1:35 am 01:35 Clear 21 -5.9 19 -7.3 90 90 NW 3 6 30.36 1028 10 16.0934 N/A
1:55 am 01:55 Clear 21 -5.9 19 -7.2 91 91 WNW 3 6 30.36 1028 10 16.0934 N/A
2:15 am 02:15 Clear 20 -6.8 17 -8.2 90 90 W 6 9 30.39 1029 10 16.0934 N/A
2:35 am 02:35 Clear 20 -6.6 18 -8 90 90 W 7 11 30.39 1029 10 16.0934 N/A
2:55 am 02:55 Clear 21 -6.1 19 -7.5 90 90 W 5 7 30.36 1028 10 16.0934 N/A
3:15 am 03:15 Clear 21 -6.2 18 -7.6 90 90 W 3 6 30.36 1028 10 16.0934 N/A
3:35 am 03:35 Clear 21 -6.2 18 -7.6 90 90 Calm 30.36 1028 10 16.0934 N/A
3:55 am 03:55 Clear 21 -6.3 18 -7.7 90 90 W 3 6 30.36 1028 10 16.0934 N/A
4:15 am 04:15 Clear 20 -6.7 18 -8 91 91 WNW 3 6 30.39 1029 10 16.0934 N/A
4:35 am 04:35 Clear 20 -6.6 18 -7.8 91 91 W 5 7 30.39 1029 10 16.0934 N/A
4:55 am 04:55 Clear 20 -6.6 18 -7.7 92 92 WNW 3 6 30.39 1029 10 16.0934 N/A
5:15 am 05:15 Clear 20 -6.7 18 -7.9 91 91 W 5 7 30.39 1029 10 16.0934 N/A
5:35 am 05:35 Clear 19 -7 17 -8.1 92 92 Calm 30.42 1030 10 16.0934 N/A
5:55 am 05:55 Clear 20 -6.8 18 -8 91 91 W 3 6 30.42 1030 10 16.0934 N/A
6:15 am 06:15 Clear 20 -6.7 18 -8 91 91 W 3 6 30.42 1030 10 16.0934 N/A
6:35 am 06:35 Clear 19 -7.3 17 -8.6 91 91 W 5 7 30.42 1030 10 16.0934 N/A
6:55 am 06:55 Clear 19 -7 17 -8.1 92 92 W 5 7 30.42 1030 10 16.0934 N/A
7:15 am 07:15 Clear 20 -6.7 18 -7.8 92 92 Calm 30.42 1030 10 16.0934 N/A
7:35 am 07:35 Clear 20 -6.5 18 -7.6 92 92 W 5 7 30.39 1029 10 16.0934 N/A
7:55 am 07:55 Sunny 19 -7.1 17 -8.3 91 91 Calm 30.42 1030 10 16.0934 N/A
8:15 am 08:15 Sunny 20 -6.9 17 -8.1 91 91 NW 5 7 30.42 1030 10 16.0934 N/A
8:35 am 08:35 Sunny 22 -5.5 20 -6.6 92 92 Calm 30.39 1029 10 16.0934 N/A
8:55 am 08:55 Sunny 24 -4.3 22 -5.5 91 91 Calm 30.39 1029 10 16.0934 N/A
9:15 am 09:15 Sunny 26 -3.2 24 -4.5 91 91 Calm 30.42 1030 10 16.0934 N/A
9:35 am 09:35 Sunny 28 -2.1 25 -4 87 87 Calm 30.36 1028 10 16.0934 N/A
9:55 am 09:55 Sunny 30 -0.9 27 -2.8 87 87 W 6 9 30.39 1029 10 16.0934 N/A
10:15 am 10:15 Sunny 32 0 28 -2.1 86 86 WNW 5 7 30.36 1028 10 16.0934 N/A
10:35 am 10:35 Sunny 34 1.3 30 -1.3 83 83 Calm 30.36 1028 10 16.0934 N/A
10:55 am 10:55 Sunny 37 2.8 28 -2.1 70 70 WSW 5 7 30.33 1027 10 16.0934 N/A
11:15 am 11:15 Sunny 39 4.1 29 -1.9 65 65 W 6 9 30.33 1027 10 16.0934 N/A
11:35 am 11:35 Sunny 41 4.9 28 -2.1 61 61 WSW 3 6 30.33 1027 10 16.0934 N/A
11:55 am 11:55 Sunny 42 5.7 28 -2.2 57 57 W 6 9 30.3 1026 10 16.0934 N/A
12:15 pm 12:15 Sunny 44 6.9 29 -1.7 55 55 WSW 6 9 30.27 1025 10 16.0934 N/A
12:35 pm 12:35 Sunny 46 7.5 28 -2.3 50 50 SW 3 6 30.27 1025 10 16.0934 N/A
12:55 pm 12:55 Sunny 47 8.1 29 -1.8 50 50 SW 7 11 30.27 1025 10 16.0934 N/A
1:15 pm 13:15 Sunny 47 8.5 28 -2.3 47 47 SW 8 13 30.24 1024 10 16.0934 N/A
1:35 pm 13:35 Sunny 48 8.8 28 -2.4 46 46 WSW 3 6 30.24 1024 10 16.0934 N/A
1:55 pm 13:55 Sunny 50 10 27 -2.9 41 41 WSW 10 17 30.24 1024 10 16.0934 N/A
2:15 pm 14:15 Sunny 50 10 27 -2.9 41 41 W 12 19 30.24 1024 10 16.0934 N/A
2:35 pm 14:35 Sunny 49 9.6 28 -2.4 43 43 W 7 11 30.24 1024 10 16.0934 N/A
2:55 pm 14:55 Sunny 50 10 28 -2.4 42 42 W 5 7 30.24 1024 10 16.0934 N/A
3:15 pm 15:15 Sunny 51 10.4 29 -1.9 43 43 W 3 6 30.21 1023 10 16.0934 0.01 0.254
3:35 pm 15:35 Sunny 51 10.5 29 -1.4 44 44 WNW 5 7 30.24 1024 10 16.0934 0.01 0.254
3:55 pm 15:55 Sunny 50 10.2 29 -1.8 43 43 WNW 6 9 30.24 1024 10 16.0934 0.01 0.254
4:15 pm 16:15 Sunny 49 9.7 29 -1.5 46 46 NW 7 11 30.24 1024 10 16.0934 N/A
4:35 pm 16:35 Sunny 44 6.8 31 -0.4 60 60 NW 6 9 30.27 1025 10 16.0934 N/A
4:55 pm 16:55 Sunny 41 5 30 -1 66 66 WNW 5 7 30.3 1026 10 16.0934 N/A
5:15 pm 17:15 Clear 39 4 30 -1 70 70 WNW 3 6 30.3 1026 10 16.0934 N/A
5:35 pm 17:35 Clear 38 3.2 30 -1 74 74 NW 3 6 30.3 1026 10 16.0934 N/A
5:55 pm 17:55 Clear 32 0 27 -2.9 81 81 NW 6 9 30.33 1027 10 16.0934 0 0
6:15 pm 18:15 Clear 33 0.6 28 -2.5 80 80 NNW 5 7 30.33 1027 10 16.0934 N/A
6:35 pm 18:35 Clear 32 -0.1 27 -2.7 83 83 NNW 6 9 30.36 1028 10 16.0934 N/A
6:55 pm 18:55 Clear 30 -1.1 26 -3.3 85 85 NNW 6 9 30.39 1029 10 16.0934 N/A
7:15 pm 19:15 Clear 29 -1.7 25 -4 85 85 NW 3 6 30.39 1029 10 16.0934 N/A
7:35 pm 19:35 Clear 29 -1.9 25 -3.9 86 86 Calm 30.39 1029 10 16.0934 N/A
7:55 pm 19:55 Clear 27 -2.6 24 -4.3 88 88 Calm 30.42 1030 10 16.0934 N/A
8:15 pm 20:15 Clear 29 -1.6 26 -3.5 87 87 SW 3 6 30.39 1029 10 16.0934 N/A
8:35 pm 20:35 Clear 28 -2.5 24 -4.2 88 88 Calm 30.39 1029 10 16.0934 N/A
8:55 pm 20:55 Clear 29 -1.4 26 -3.2 88 88 Calm 30.39 1029 10 16.0934 N/A
9:15 pm 21:15 Clear 28 -2 25 -3.7 88 88 Calm 30.39 1029 10 16.0934 N/A
9:35 pm 21:35 Clear 28 -2.4 24 -4.3 87 87 Calm 30.39 1029 10 16.0934 N/A
9:55 pm 21:55 Clear 27 -3 24 -4.5 90 90 Calm 30.42 1030 10 16.0934 N/A
10:15 pm 22:15 Clear 26 -3.5 24 -4.7 92 92 Calm 30.42 1030 10 16.0934 N/A
10:35 pm 22:35 Clear 26 -3.3 24 -4.5 92 92 Calm 30.42 1030 10 16.0934 N/A
10:55 pm 22:55 Clear 26 -3.5 24 -4.7 92 92 Calm 30.42 1030 10 16.0934 N/A
11:15 pm 23:15 Clear 24 -4.2 22 -5.4 91 91 N 3 6 30.42 1030 10 16.0934 N/A
11:35 pm 23:35 Clear 25 -3.8 23 -4.8 93 93 Calm 30.42 1030 10 16.0934 N/A
11:55 pm 23:55 Clear 24 -4.2 22 -5.5 91 91 Calm 30.45 1031 10 16.0934 N/A

Powered by AerisWeather